Biloxi, MS

2:30 PM CDT on May 25, 2018 (GMT -0500)
Keesler Air Force Base

Weather History for KBIX - February, 2014

Change the Weather History Date:

Saturday, February 22, 2014

  Actual Average Record
Temperature  
Mean Temperature 54 °F -  
Max Temperature 64 °F 66 °F 78 °F (2001)
Min Temperature 44 °F 48 °F 19 °F (1978)
Degree Days  
Heating Degree Days 11    
Growing Degree Days 4 (Base 50)    
Moisture  
Dew Point 40 °F    
Average Humidity 58    
Maximum Humidity 88    
Minimum Humidity 28    
Precipitation  
Precipitation 0.00 in - - ()
Sea Level Pressure  
Sea Level Pressure 30.10 in    
Wind  
Wind Speed 7 mph (ESE)    
Max Wind Speed 13 mph    
Max Gust Speed -    
Visibility 10 miles    
Events      
Averages and records for this station are not official NWS values.
T = Trace of Precipitation, MM = Missing Value Source: NWS Daily Summary

Daily Weather History Graph

Daily Weather History Graph

Search for Another Location

Airport or City:

Astronomy

Feb. 22, 2014 Rise Set
Actual Time 6:29 AM CST 5:49 PM CST
Civil Twilight 6:04 AM CST 6:13 PM CST
Nautical Twilight 5:36 AM CST 6:41 PM CST
Astronomical Twilight 5:09 AM CST 7:09 PM CST
Moon 12:14 AM CST (2/22) 11:10 AM CST (2/22)
Length of Visible Light 12h 08m
Length of Day
11h 20m
Waning Gibbous, 50% of the Moon is Illuminated
Feb 22
Waning Gibbous
Mar 1
New
Mar 8
First Quarter
Mar 16
Full
Mar 23
Last Quarter

Hourly Weather History & Observations

Time (CST) Temp. Windchill Dew Point Humidity Pressure Visibility Wind Dir Wind Speed Gust Speed Precip Events Conditions
12:58 AM 46.0 °F 44.8 °F 36.0 °F 68% 30.12 in 10.0 mi NE 3.5 mph - N/A   Clear
1:58 AM 46.0 °F 43.1 °F 36.1 °F 68% 30.10 in 10.0 mi NE 5.8 mph - N/A   Clear
2:58 AM 46.0 °F 42.5 °F 36.1 °F 68% 30.10 in 10.0 mi NE 6.9 mph - N/A   Clear
3:58 AM 46.9 °F - 34.5 °F 62% 30.10 in 10.0 mi ENE 6.9 mph - N/A   Clear
4:58 AM 46.6 °F - 34.3 °F 62% 30.13 in 10.0 mi ENE 10.4 mph - N/A   Clear
5:58 AM 44.8 °F 41.0 °F 34.9 °F 68% 30.14 in 10.0 mi ENE 6.9 mph - N/A   Clear
6:58 AM 45.1 °F 40.8 °F 35.4 °F 69% 30.15 in 10.0 mi ENE 8.1 mph - N/A   Clear
7:58 AM 51.8 °F - 33.4 °F 50% 30.17 in 10.0 mi NE 5.8 mph - N/A   Partly Cloudy
8:58 AM 57.9 °F - 32.2 °F 38% 30.17 in 10.0 mi East 10.4 mph - N/A   Clear
9:58 AM 61.7 °F - 30.0 °F 30% 30.18 in 10.0 mi East 11.5 mph - N/A   Clear
10:58 AM 63.7 °F - 30.0 °F 28% 30.17 in 10.0 mi SSE 8.1 mph - N/A   Clear
11:58 AM 64.0 °F - 36.5 °F 36% 30.13 in 10.0 mi SSE 8.1 mph - N/A   Partly Cloudy
12:58 PM 64.0 °F - 33.1 °F 31% 30.10 in 10.0 mi SSE 11.5 mph - N/A   Partly Cloudy
1:58 PM 63.7 °F - 40.3 °F 42% 30.09 in 10.0 mi SSE 6.9 mph - N/A   Clear
2:58 PM 62.1 °F - 42.1 °F 48% 30.07 in 10.0 mi SSE 9.2 mph - N/A   Partly Cloudy
3:58 PM 62.2 °F - 45.7 °F 55% 30.06 in 10.0 mi SSE 12.7 mph - N/A   Clear
4:58 PM 60.6 °F - 42.4 °F 51% 30.07 in 10.0 mi SE 5.8 mph - N/A   Clear
5:58 PM 59.5 °F - 42.1 °F 52% 30.05 in 10.0 mi ESE 3.5 mph - N/A   Mostly Cloudy
6:58 PM 59.0 °F - 43.3 °F 56% 30.04 in 10.0 mi ESE 3.5 mph - N/A   Overcast
7:58 PM 58.6 °F - 46.0 °F 63% 30.06 in 10.0 mi SE 3.5 mph - N/A   Overcast
8:58 PM 58.1 °F - 48.9 °F 71% 30.05 in 10.0 mi SE 5.8 mph - N/A   Overcast
9:58 PM 58.6 °F - 51.3 °F 76% 30.05 in 10.0 mi SSE 5.8 mph - N/A   Mostly Cloudy
10:58 PM 59.2 °F - 53.1 °F 80% 30.04 in 10.0 mi ESE 3.5 mph - N/A   Mostly Cloudy
11:43 PM 57.2 °F - 53.6 °F 88% 30.02 in 10.0 mi SE 6.9 mph - N/A   Overcast
11:58 PM 57.9 °F - 53.4 °F 85% 30.03 in 10.0 mi SE 9.2 mph - N/A   Overcast